カタログに戻る

COSMOS 1844

運用中軍事LEO
NORAD 17973·PAYLOAD·🇷🇺 Russia

打ち上げ May 13, 1987 から Baikonur Cosmodrome

Loading…

次のパス (今後24時間)

TLE

最新Source: Space-Track

元期: Sep 14, 2026, 06:38 UTC

1 17973U 87041A   26257.27673434 -.00000279  00000-0 -11962-3 0  9997
2 17973  70.9017 356.3858 0028344  99.8992 260.5331 14.14580770 30255

AllMySatでCOSMOS 1844をリアルタイム追跡

Download on the App Store